Meacham, OR

10:01 PM PDT on April 28, 2017 (GMT -0700)
Meacham

Weather History for KMEH - February, 2014

Change the Weather History Date:

Saturday, February 8, 2014

  Actual Average Record
Temperature  
Mean Temperature 16 °F -  
Max Temperature 24 °F 35 °F 55 °F (2015)
Min Temperature 8 °F 17 °F 1 °F (2001)
Degree Days  
Heating Degree Days 49    
Moisture  
Dew Point 11 °F    
Average Humidity 84    
Maximum Humidity 92    
Minimum Humidity 77    
Precipitation  
Precipitation 0.30 in - - ()
Sea Level Pressure  
Sea Level Pressure 29.87 in    
Wind  
Wind Speed 1 mph (NE)    
Max Wind Speed 5 mph    
Max Gust Speed -    
Visibility 3 miles    
Events Fog , Snow    
Averages and records for this station are not official NWS values.
T = Trace of Precipitation, MM = Missing Value Source: NWS Daily Summary

Daily Weather History Graph

Daily Weather History Graph

Search for Another Location

Airport or City:

Trip Planner

Search our weather history database for the weather conditions in past years. The results will help you decide how hot, cold, wet, or windy it might be!

Date:

Astronomy

Feb. 08, 2014 Rise Set
Actual Time 7:05 AM PST 5:10 PM PST
Civil Twilight 6:34 AM PST 5:41 PM PST
Nautical Twilight 5:59 AM PST 6:16 PM PST
Astronomical Twilight 5:25 AM PST 6:51 PM PST
Moon 12:03 PM PST (2/8) 2:26 AM PST (2/8)
Length of Visible Light 11h 07m
Length of Day
10h 05m
Waxing Gibbous, 69% of the Moon is Illuminated
Feb 8
Waxing Gibbous
Feb 14
Full
Feb 22
Last Quarter
Mar 1
New
Mar 8
First Quarter

Hourly Weather History & Observations

Time (PST) Temp. Windchill Dew Point Humidity Pressure Visibility Wind Dir Wind Speed Gust Speed Precip Events Conditions
12:56 AM 9.0 °F - 3.9 °F 80% 29.80 in 1.8 mi Calm Calm - 0.03 in Snow Light Snow
1:03 AM 8.1 °F 1.4 °F 3.9 °F 83% 29.68 in 2.0 mi West 3.5 mph - 0.00 in Snow Light Snow
1:19 AM 8.1 °F - 3.9 °F 83% 29.69 in 1.8 mi Calm Calm - 0.00 in Snow Light Snow
1:22 AM 8.1 °F 1.4 °F 3.9 °F 83% 29.69 in 2.0 mi Variable 3.5 mph - 0.00 in Snow Light Snow
1:56 AM 8.1 °F - 3.9 °F 83% 29.86 in 2.0 mi Calm Calm - 0.01 in Snow Light Snow
2:05 AM 8.1 °F 1.4 °F 3.9 °F 83% 29.74 in 1.8 mi Variable 3.5 mph - 0.01 in Snow Light Snow
2:45 AM 8.1 °F 1.4 °F 3.0 °F 80% 29.76 in 2.0 mi Variable 3.5 mph - 0.02 in Snow Light Snow
2:56 AM 8.1 °F - 3.0 °F 80% 29.89 in 1.8 mi Calm Calm - 0.03 in Snow Light Snow
3:01 AM 8.1 °F - 3.0 °F 80% 29.76 in 2.0 mi Calm Calm - 0.00 in Snow Light Snow
3:21 AM 8.1 °F - 3.0 °F 80% 29.79 in 5.0 mi Calm Calm - 0.00 in Snow Light Snow
3:56 AM 8.1 °F - 3.9 °F 83% 29.92 in 10.0 mi Calm Calm - 0.00 in   Overcast
4:56 AM 8.1 °F - 3.9 °F 83% 29.98 in 9.0 mi Calm Calm - 0.00 in   Overcast
5:56 AM 9.0 °F - 3.9 °F 80% 29.99 in 10.0 mi Calm Calm - N/A   Overcast
6:19 AM 9.0 °F - 3.9 °F 80% 29.86 in 10.0 mi Calm Calm - N/A   Overcast
6:56 AM 10.0 °F - 5.0 °F 80% 30.00 in 5.0 mi Calm Calm - 0.00 in Snow Light Snow
7:44 AM 10.9 °F - 6.1 °F 81% 29.89 in 2.5 mi Calm Calm - 0.00 in Snow Light Snow
7:56 AM 10.9 °F - 6.1 °F 81% 30.04 in 2.5 mi Calm Calm - 0.01 in Snow Light Snow
8:06 AM 10.9 °F - 7.0 °F 84% 29.90 in 3.0 mi Calm Calm - 0.00 in Snow Light Snow
8:56 AM 12.9 °F - 8.1 °F 81% 30.04 in 8.0 mi Calm Calm - 0.00 in Snow Light Snow
9:25 AM 15.1 °F - 9.0 °F 77% 29.92 in 2.5 mi Calm Calm - 0.01 in Snow Light Snow
9:56 AM 15.1 °F - 10.0 °F 80% 30.04 in 4.0 mi Calm Calm - 0.01 in Snow Light Snow
10:53 AM 17.6 °F - 12.2 °F 79% 29.93 in 2.0 mi Calm Calm - 0.01 in Snow Light Snow
10:56 AM 17.1 °F - 12.0 °F 81% 30.05 in 1.5 mi Calm Calm - 0.01 in Snow Light Snow
11:05 AM 18.0 °F - 12.9 °F 81% 29.93 in 1.0 mi Calm Calm - 0.01 in Snow Light Snow
11:20 AM 18.0 °F - 14.0 °F 84% 29.93 in 0.8 mi Calm Calm - 0.01 in Snow Light Snow
11:35 AM 18.0 °F - 14.0 °F 84% 29.93 in 1.0 mi Calm Calm - 0.02 in Snow Light Snow
11:52 AM 17.6 °F - 14.0 °F 86% 29.92 in 0.8 mi Calm Calm - 0.03 in Snow Light Snow
11:56 AM 19.0 °F - 14.0 °F 81% 30.07 in 0.8 mi Calm Calm - 0.03 in Snow Light Snow
12:08 PM 19.0 °F - 14.0 °F 81% 29.93 in 1.0 mi Calm Calm - 0.00 in Snow Light Snow
12:31 PM 18.0 °F - 12.9 °F 81% 29.93 in 0.5 mi Calm Calm - 0.01 in Snow Snow
12:42 PM 18.0 °F - 12.9 °F 81% 29.92 in 0.8 mi Calm Calm - 0.02 in Snow Light Snow
12:56 PM 18.0 °F - 14.0 °F 84% 30.06 in 1.0 mi Calm Calm - 0.03 in Snow Light Snow
1:16 PM 18.0 °F - 14.0 °F 84% 29.90 in 2.5 mi Calm Calm - 0.00 in Snow Light Snow
1:18 PM 19.0 °F - 14.0 °F 81% 29.89 in 3.0 mi Calm Calm - 0.00 in Snow Light Snow
1:40 PM 19.0 °F - 15.1 °F 85% 29.88 in 1.8 mi Calm Calm - 0.00 in Snow Light Snow
1:48 PM 19.9 °F - 15.1 °F 81% 29.89 in 1.2 mi Calm Calm - 0.00 in Snow Light Snow
1:56 PM 19.0 °F - 15.1 °F 85% 30.04 in 1.2 mi Calm Calm - 0.01 in Snow Light Snow
2:17 PM 19.9 °F - 16.0 °F 85% 29.88 in 3.0 mi Calm Calm - 0.00 in Snow Light Snow
2:26 PM 21.0 °F - 16.0 °F 81% 29.88 in 4.0 mi Calm Calm - 0.00 in Snow Light Snow
2:56 PM 21.0 °F 16.2 °F 16.0 °F 81% 30.00 in 4.0 mi ENE 3.5 mph - 0.00 in Snow Light Snow
3:05 PM 21.0 °F 16.2 °F 16.0 °F 81% 29.85 in 1.5 mi NE 3.5 mph - 0.00 in Snow Light Snow
3:16 PM 21.0 °F - 17.1 °F 85% 29.84 in 0.8 mi Calm Calm - 0.00 in Snow Light Snow
3:26 PM 21.0 °F - 17.1 °F 85% 29.84 in 1.0 mi Calm Calm - 0.01 in Snow Light Snow
3:56 PM 21.0 °F - 18.0 °F 88% 29.98 in 0.8 mi Calm Calm - 0.02 in Snow Light Snow
4:17 PM 21.0 °F - 17.1 °F 85% 29.84 in 2.0 mi Calm Calm - 0.01 in Snow Light Snow
4:29 PM 21.0 °F - 17.1 °F 85% 29.83 in 1.2 mi Calm Calm - 0.01 in Snow Light Snow
4:51 PM 21.2 °F - 17.6 °F 86% 29.81 in 0.5 mi Calm Calm - 0.02 in Fog , Snow Snow
4:56 PM 21.0 °F - 18.0 °F 88% 29.95 in 0.8 mi Calm Calm - 0.02 in Snow Light Snow
5:06 PM 21.0 °F - 17.1 °F 85% 29.79 in 1.2 mi Calm Calm - 0.01 in Snow Light Snow
5:26 PM 21.0 °F - 18.0 °F 88% 29.79 in 2.5 mi Calm Calm - 0.01 in Snow Light Snow
5:37 PM 21.0 °F - 18.0 °F 88% 29.78 in 1.0 mi Calm Calm - 0.02 in Snow Light Snow
5:56 PM 21.0 °F - 18.0 °F 88% 29.93 in 2.0 mi Calm Calm - 0.03 in Snow Light Snow
6:49 PM 21.0 °F - 18.0 °F 88% 29.75 in 1.8 mi Calm Calm - 0.02 in Snow Light Snow
6:56 PM 21.0 °F - 19.0 °F 92% 29.89 in 2.0 mi Calm Calm - 0.02 in Snow Light Snow
7:02 PM 21.9 °F - 19.0 °F 89% 29.74 in 3.0 mi Calm Calm - 0.01 in Snow Light Snow
7:39 PM 24.1 °F - 21.0 °F 88% 29.73 in 9.0 mi Calm Calm - 0.01 in   Overcast
7:56 PM 24.1 °F - 21.0 °F 88% 29.86 in 4.0 mi Calm Calm - 0.01 in Snow Light Snow
8:56 PM 16.0 °F 10.4 °F 12.9 °F 88% 29.88 in 10.0 mi Variable 3.5 mph - 0.00 in   Overcast
9:11 PM 12.9 °F - 10.0 °F 88% 29.74 in 5.0 mi Calm Calm - 0.00 in Snow Light Snow
9:22 PM 12.0 °F 5.9 °F 8.1 °F 84% 29.76 in 1.8 mi Variable 3.5 mph - 0.00 in Snow Light Snow
9:45 PM 10.9 °F 4.7 °F 7.0 °F 84% 29.76 in 1.5 mi Variable 3.5 mph - 0.01 in Snow Light Snow
9:56 PM 12.0 °F - 7.0 °F 80% 29.91 in 2.5 mi Calm Calm - 0.02 in Snow Light Snow
10:45 PM 12.0 °F - 8.1 °F 84% 29.74 in 4.0 mi Calm Calm - 0.01 in   Overcast
10:56 PM 12.0 °F - 8.1 °F 84% 29.89 in 7.0 mi Calm Calm - 0.01 in   Overcast
11:17 PM 12.0 °F 4.1 °F 8.1 °F 84% 29.78 in 10.0 mi Variable 4.6 mph - N/A   Overcast
11:39 PM 10.9 °F - 7.0 °F 84% 29.82 in 3.0 mi Calm Calm - 0.00 in Snow Light Snow
11:46 PM 10.0 °F 1.8 °F 7.0 °F 87% 29.82 in 1.8 mi Variable 4.6 mph - 0.00 in Snow Light Snow
11:56 PM 10.0 °F 3.6 °F 7.0 °F 87% 29.96 in 1.0 mi Variable 3.5 mph - 0.00 in Snow Light Snow